Pasco, WA
on Saturday, February 9, 2013

Saturday
Previous Day Next Day
Daily Summary
 ActualAverageRecord
Temperature
Mean Temperature °F 38°F  
Max Temperature 49°F 47°F 57°F (1996)
Min Temperature 22°F 29°F 6°F (1989)
Degree Days
Heating Degree Days 29 27  
Month to date heating degree days 234 249  
Since 1 July heating degree days 3145 3400  
Cooling Degree Days 0 0  
Month to date cooling degree days 0 0  
Year to date cooling degree days 0 0  
Moisture
Dew Point 26°F   
Average Humidity 71    
Maximum Humidity 96    
Minimum Humidity 46    
Precipitation
Precipitation 0.00 in in 0.20 in (2007)
Month to date precipitation T  
Year to date precipitation 0.36  
Snow
Snow 0.00 in in in ()
Snow Depth 0.00 in   
Wind
Wind Speed 2 mph   
Max Wind Speed 9 mph   
Max Gust Speed 12 mph   
Visibility 10 miles   
Events     

Key: T is trace of precipitation, MM is missing value
Source: NWS Daily Summary
Time(PST)TemperatureDew PointHumidity Pressure Visibility Wind DirectionWind SpeedGust SpeedPrecipitationEvents Conditions
12:53 AM 25.0°F 23.0°F 92% 30.17 in 10.0 miles Calm Calm - N/A   Clear
1:53 AM 24.1°F 21.9°F 91% 30.16 in 10.0 miles Calm Calm - N/A   Clear
2:53 AM 24.1°F 21.9°F 91% 30.17 in 10.0 miles North 4.6 mph - N/A   Clear
3:53 AM 23.0°F 21.0°F 92% 30.16 in 10.0 miles Calm Calm - N/A   Clear
4:53 AM 21.9°F 19.9°F 92% 30.16 in 10.0 miles Calm Calm - N/A   Clear
5:53 AM 23.0°F 21.0°F 92% 30.16 in 10.0 miles Calm Calm - N/A   Mostly Cloudy
6:53 AM 21.9°F 19.9°F 92% 30.17 in 10.0 miles North 4.6 mph - N/A   Clear
7:53 AM 25.0°F 21.9°F 88% 30.19 in 10.0 miles Calm Calm - N/A   Clear
8:53 AM 28.9°F 26.1°F 89% 30.19 in 10.0 miles Calm Calm - N/A   Clear
9:53 AM 34.0°F 30.9°F 89% 30.18 in 10.0 miles Calm Calm - N/A   Clear
10:53 AM 39.9°F 30.0°F 68% 30.17 in 10.0 miles SSE 3.5 mph - N/A   Clear
11:53 AM 44.1°F 28.9°F 55% 30.16 in 10.0 miles Calm Calm - N/A   Clear
12:53 PM 46.9°F 28.9°F 50% 30.14 in 10.0 miles South 3.5 mph - N/A   Clear
1:53 PM 48.0°F 28.0°F 46% 30.12 in 10.0 miles SW 6.9 mph - N/A   Clear
2:53 PM 48.9°F 28.0°F 44% 30.12 in 10.0 miles SSW 8.1 mph - N/A   Scattered Clouds
3:53 PM 48.0°F 30.0°F 50% 30.13 in 10.0 miles SSW 5.8 mph - N/A   Scattered Clouds
4:53 PM 43.0°F 30.0°F 60% 30.13 in 10.0 miles WSW 4.6 mph - N/A   Clear
5:53 PM 39.0°F 28.9°F 67% 30.14 in 10.0 miles SW 5.8 mph - N/A   Clear
6:53 PM 33.1°F 28.0°F 82% 30.16 in 10.0 miles Calm Calm - N/A   Clear
7:53 PM 30.9°F 28.0°F 89% 30.18 in 10.0 miles Calm Calm - N/A   Clear
8:53 PM 30.0°F 27.0°F 88% 30.19 in 10.0 miles Calm Calm - N/A   Clear
9:53 PM 26.1°F 24.1°F 92% 30.21 in 10.0 miles Calm Calm - N/A   Clear
10:53 PM 27.0°F 25.0°F 92% 30.22 in 10.0 miles NW 4.6 mph - N/A   Clear
11:53 PM 26.1°F 24.1°F 92% 30.25 in 10.0 miles NNW 3.5 mph - N/A   Clear
Moon Phase
Feb. 09 Feb. 10 Feb. 17 Feb. 25 Mar. 04
Sunrise:07:08 AM (PST) Moon Rise:06:22 AM (PST)2/9
Sunset:05:13 PM (PST) Moon Set:05:04 PM (PST)2/9

Copyright © 2014 The Weather Underground, Inc.